#timestamp,LO_Frequency,Hit,StdDev 
1710597615.0,286047007.1,N
1710597616.0,286047007.1,N
1710597635.8,286047006.6,N
1710597655.6,286047009.2,N
1710597675.5,286047008.5,N
1710597695.3,286047010.4,N
1710597715.1,286047009.8,N
1710597735.9,286047010.0,N
1710597755.7,286047009.6,N
1710597775.6,286047011.5,N
1710597795.4,286047011.5,N
1710597815.2,286047013.4,N
1710597835.1,286047013.0,N
1710597836.0,286047013.0,N
1710597855.8,286047013.0,N
1710597875.6,286047013.4,N
1710597895.5,286047015.0,N
1710597915.3,286047014.6,N
1710597935.2,286047017.0,Y
1710597955.9,286047007.9,P
1710597975.7,286047010.4,P
1710597995.6,286047012.3,P
1710598015.4,286047012.4,Y
1710598035.3,286047002.2,P
1710598055.1,286047001.8,N
1710598056.0,286047001.8,N
1710598075.8,286047001.3,N
1710598095.7,286047004.0,N
1710598115.5,286047004.2,N
1710598135.3,286047003.2,N
1710598155.2,286047005.4,N
1710598175.0,286047004.8,N
1710598175.9,286047004.8,N
1710598195.8,286047004.9,N
1710598215.6,286047007.2,Y
1710598235.4,286047000.2,P
1710598255.3,286046998.5,N
1710598275.1,286046999.5,N
1710598295.9,286046997.7,N
1710598315.7,286046995.5,N
1710598335.5,286046991.7,Y
1710598355.4,286046992.3,P
1710598375.2,286046992.7,N
1710598395.1,286046990.9,N
1710598396.0,286046990.9,N
1710598415.8,286046989.9,Y
1710598435.6,286046993.3,P
1710598455.5,286046996.3,P
1710598475.3,286046993.7,P
1710598495.2,286046992.0,Y
1710598515.9,286046999.4,P
1710598535.7,286046997.2,N
1710598555.6,286046995.4,N
1710598575.4,286046995.9,N
1710598595.2,286046995.2,N
1710598615.1,286046997.7,N
1710598616.0,286046997.7,N
1710598635.8,286046995.0,Y
1710598655.7,286046998.7,P
1710598675.5,286046998.3,N
1710598695.3,286046998.7,N
1710598715.2,286046998.3,N
1710598735.0,286046998.9,N
1710598735.9,286046998.9,N
1710598755.7,286046998.3,N
1710598775.6,286046999.3,N
1710598795.4,286046999.0,N
1710598815.3,286046999.3,N
1710598835.1,286046999.1,N
1710598836.0,286046999.1,N
1710598855.8,286046999.5,N
1710598875.7,286046996.5,Y
1710598895.5,286046998.6,P
1710598915.4,286046998.8,P
1710598935.2,286047001.2,P
1710598955.0,286046998.9,N
1710598955.9,286046998.9,N
1710598975.8,286046999.3,N
1710598995.6,286046998.8,N
1710599015.4,286046998.8,N
1710599035.3,286046998.5,N
1710599055.1,286046998.1,N
1710599075.9,286047011.9,Y
1710599095.7,286047000.2,P
1710599115.5,286047000.5,N
1710599135.4,286047000.6,N
1710599155.2,286047000.5,N
1710599175.1,286047002.3,Y
1710599176.0,286047002.3,P
1710599195.8,286046999.7,N
1710599215.6,286047002.7,N
1710599235.5,286047001.9,N
1710599255.3,286047001.8,N
1710599275.1,286047004.4,Y
1710599295.9,286047002.8,P
1710599315.7,286047001.0,N
1710599335.6,286046998.1,N
1710599355.4,286046998.6,N
1710599375.2,286046999.1,N
1710599395.1,286046998.8,N
1710599396.0,286046998.8,N
1710599415.8,286046998.3,N
1710599435.7,286047001.2,N
1710599455.5,286046998.6,N
1710599475.3,286046998.4,N
1710599495.2,286046998.1,N
1710599515.0,286046998.1,N
1710599515.9,286046998.1,N
1710599535.7,286046998.2,N
1710599555.6,286046998.1,N
1710599575.4,286047001.2,N
1710599595.3,286046998.1,N
1710599615.1,286046998.1,N
1710599616.0,286046998.1,N
1710599635.8,286047000.9,N
1710599655.7,286046999.7,N
1710599675.5,286046999.8,N
1710599695.3,286047002.4,N
1710599715.2,286047002.6,N
1710599735.0,286047002.0,N
1710599735.9,286047002.0,N
1710599755.8,286047004.0,N
1710599775.6,286047003.9,N
1710599795.4,286047004.4,N
1710599815.3,286047002.0,N
1710599835.1,286047002.0,N
1710599855.8,286047001.4,N
1710599875.7,286047001.5,N
1710599895.5,286047002.1,N
1710599915.4,286047002.6,N
1710599935.2,286047002.5,N
1710599955.0,286047001.7,N
1710599955.9,286047001.7,N
1710599975.8,286047001.4,N
1710599995.6,286047002.0,N
1710600015.5,286047001.3,N
1710600035.3,286047001.3,N
1710600055.1,286047001.8,N
1710600075.9,286047001.8,N
1710600095.7,286047001.3,N
1710600115.5,286047001.6,N
1710600135.4,286047001.7,N
1710600155.2,286047004.0,N
1710600175.1,286047004.2,Y
1710600176.0,286047004.2,P
1710600195.8,286047002.3,N
1710600215.6,286047002.5,N
1710600235.5,286047004.4,Y
1710600255.3,286047000.8,P
1710600275.2,286047001.0,N
1710600295.9,286047000.1,N
1710600315.7,286047000.3,N
1710600335.6,286046999.7,N
1710600355.4,286046999.7,N
1710600375.3,286047000.1,N
1710600395.1,286047002.8,N
1710600396.0,286047002.8,N
1710600415.8,286047000.1,N
1710600435.7,286047002.4,N
1710600455.5,286047001.6,N
1710600475.3,286047002.2,N
1710600495.2,286047001.5,N
1710600515.0,286047001.3,N
1710600515.9,286047001.3,N
1710600535.8,286047003.7,Y
1710600555.6,286047001.9,P
1710600575.4,286047004.4,P
1710600595.3,286047001.8,N
1710600615.1,286047004.2,Y
1710600635.9,286047002.4,P
1710600655.7,286047002.0,P
1710600675.5,286047001.5,P
1710600695.4,286047001.5,Y
1710600715.2,286047000.8,P
1710600735.0,286047000.4,N
1710600736.0,286047000.4,N
1710600755.8,286047000.3,N
1710600775.6,286047002.8,Y
1710600795.5,286047000.1,P
1710600815.3,286047002.5,P
1710600835.1,286047002.1,N
1710600855.9,286047001.8,N
1710600875.7,286047001.3,N
1710600895.6,286047004.0,Y
1710600915.4,286047002.1,P
1710600935.2,286047002.6,P
1710600955.1,286047002.0,P
1710600956.0,286047002.0,Y
1710600975.8,286047000.7,P
1710600995.7,286047000.5,N
1710601015.5,286046999.8,N
1710601035.3,286046999.7,N
1710601055.2,286047002.6,Y
1710601075.0,286047002.4,P
1710601075.9,286047002.4,N
1710601095.7,286047002.6,N
1710601115.6,286047000.1,N
1710601135.4,286046999.7,N
1710601155.3,286047011.9,Y
1710601175.1,286047000.1,P
1710601195.8,286047002.7,P
